| time (UTC) | temp F | wind direction | speed MPH | gust MPH | rain 1hr in | rain 24hr in | rain mn in | humidity % | barometer mb |
| 20260504110659 | 47 | 0 | 0.0 | 2.0 | 0.00 | 0.00 | 0.00 | 78 | 1014.5 |
| 20260504080700 | 45 | 0 | 0.0 | 1.0 | 0.00 | 0.00 | 0.00 | 68 | 1014.5 |
| 20260504050659 | 46 | 0 | 0.0 | 2.0 | 0.00 | 0.00 | 0.00 | 56 | 1014.5 |
| 20260504045159 | 47 | 0 | 0.0 | 0.0 | 0.00 | 0.00 | 0.00 | 54 | 1014.5 |
| 20260504043659 | 47 | 0 | 0.0 | 0.0 | 0.00 | 0.00 | 0.00 | 54 | 1014.5 |
| 20260504042159 | 47 | 0 | 0.0 | 3.0 | 0.00 | 0.00 | 0.00 | 55 | 1014.3 |
| 20260504040700 | 47 | 0 | 0.0 | 0.0 | 0.00 | 0.00 | 0.00 | 56 | 1014.2 |
| 20260504035200 | 47 | 0 | 0.0 | 0.0 | 0.00 | 0.00 | 0.00 | 54 | 1014.1 |
| 20260504033659 | 46 | 0 | 0.0 | 0.0 | 0.00 | 0.00 | 0.00 | 55 | 1014.1 |
| 20260504032159 | 46 | 0 | 0.0 | 0.0 | 0.00 | 0.00 | 0.00 | 57 | 1014.0 |
| 20260504030659 | 47 | 0 | 0.0 | 0.0 | 0.00 | 0.00 | 0.00 | 56 | 1013.9 |
| 20260504025159 | 47 | 0 | 0.0 | 0.0 | 0.00 | 0.00 | 0.00 | 54 | 1014.0 |
| 20260504023700 | 47 | 0 | 0.0 | 0.0 | 0.00 | 0.00 | 0.00 | 53 | 1014.0 |
| 20260504022200 | 48 | 0 | 0.0 | 0.0 | 0.00 | 0.00 | 0.00 | 52 | 1014.0 |
| 20260504020659 | 48 | 0 | 0.0 | 0.0 | 0.00 | 0.00 | 0.00 | 53 | 1014.0 |
| 20260504015159 | 48 | 0 | 0.0 | 0.0 | 0.00 | 0.00 | 0.00 | 53 | 1013.9 |
| 20260504013659 | 49 | 0 | 0.0 | 0.0 | 0.00 | 0.00 | 0.00 | 51 | 1013.9 |
| 20260504012159 | 50 | 0 | 0.0 | 0.0 | 0.00 | 0.00 | 0.00 | 51 | 1013.7 |
| 20260504010659 | 51 | 0 | 0.0 | 0.0 | 0.00 | 0.00 | 0.00 | 48 | 1013.5 |
| 20260504005159 | 52 | 0 | 0.0 | 0.0 | 0.00 | 0.00 | 0.00 | 44 | 1013.3 |
| 20260504003659 | 53 | 0 | 0.0 | 0.0 | 0.00 | 0.00 | 0.00 | 43 | 1013.2 |
| 20260504002159 | 54 | 0 | 0.0 | 0.0 | 0.00 | 0.00 | 0.00 | 41 | 1012.8 |
| 20260503235159 | 56 | 0 | 0.0 | 2.0 | 0.00 | 0.00 | 0.00 | 39 | 1012.7 |
| 20260503233659 | 57 | 278 | 2.0 | 7.0 | 0.00 | 0.00 | 0.00 | 38 | 1012.4 |
| 20260503232159 | 57 | 298 | 3.0 | 11.0 | 0.00 | 0.00 | 0.00 | 38 | 1012.4 |
| 20260503230659 | 58 | 278 | 2.0 | 10.0 | 0.00 | 0.00 | 0.00 | 37 | 1012.3 |
| 20260503225159 | 58 | 0 | 0.0 | 12.0 | 0.00 | 0.00 | 0.00 | 36 | 1012.2 |
| 20260503223659 | 59 | 274 | 2.0 | 14.0 | 0.00 | 0.00 | 0.00 | 36 | 1012.2 |
| 20260503222159 | 59 | 307 | 6.0 | 13.0 | 0.00 | 0.00 | 0.00 | 36 | 1012.2 |
| 20260503220659 | 59 | 323 | 9.0 | 14.0 | 0.00 | 0.00 | 0.00 | 36 | 1012.3 |
| 20260503215158 | 59 | 280 | 5.0 | 15.0 | 0.00 | 0.00 | 0.00 | 35 | 1012.3 |
| 20260503213659 | 59 | 273 | 7.0 | 17.0 | 0.00 | 0.00 | 0.00 | 36 | 1012.3 |
| 20260503212159 | 59 | 324 | 12.0 | 23.0 | 0.00 | 0.00 | 0.00 | 35 | 1012.2 |
| 20260503210659 | 59 | 321 | 6.0 | 24.0 | 0.00 | 0.00 | 0.00 | 34 | 1012.2 |
| 20260503205159 | 60 | 326 | 8.0 | 17.0 | 0.00 | 0.00 | 0.00 | 35 | 1012.2 |
| 20260503203659 | 59 | 302 | 10.0 | 21.0 | 0.00 | 0.00 | 0.00 | 37 | 1012.5 |
| 20260503202159 | 58 | 310 | 9.0 | 16.0 | 0.00 | 0.00 | 0.00 | 37 | 1012.6 |
| 20260503200659 | 58 | 312 | 9.0 | 19.0 | 0.00 | 0.00 | 0.00 | 37 | 1012.7 |
| 20260503195159 | 58 | 280 | 12.0 | 19.0 | 0.00 | 0.00 | 0.00 | 38 | 1012.8 |
| 20260503193659 | 57 | 329 | 13.0 | 21.0 | 0.00 | 0.00 | 0.00 | 37 | 1012.8 |
| 20260503192159 | 56 | 282 | 4.0 | 10.0 | 0.00 | 0.00 | 0.00 | 38 | 1013.0 |
| 20260503190659 | 56 | 297 | 8.0 | 17.0 | 0.00 | 0.00 | 0.00 | 37 | 1013.1 |
| 20260503185159 | 57 | 287 | 11.0 | 18.0 | 0.00 | 0.00 | 0.00 | 37 | 1013.1 |
| 20260503183659 | 56 | 264 | 11.0 | 17.0 | 0.00 | 0.00 | 0.00 | 38 | 1013.3 |
| 20260503182159 | 57 | 275 | 4.0 | 15.0 | 0.00 | 0.00 | 0.00 | 39 | 1013.4 |
| 20260503180700 | 56 | 278 | 4.0 | 11.0 | 0.00 | 0.00 | 0.00 | 42 | 1013.5 |
| 20260503175159 | 57 | 282 | 4.0 | 14.0 | 0.00 | 0.00 | 0.00 | 41 | 1013.5 |
| 20260503173659 | 55 | 254 | 10.0 | 21.0 | 0.00 | 0.00 | 0.00 | 39 | 1013.6 |
| 20260503172159 | 54 | 251 | 7.0 | 18.0 | 0.00 | 0.00 | 0.00 | 41 | 1013.7 |
| 20260503170659 | 54 | 266 | 2.0 | 16.0 | 0.00 | 0.00 | 0.00 | 40 | 1013.8 |
| 20260503150659 | 49 | 308 | 8.0 | 18.0 | 0.00 | 0.00 | 0.00 | 47 | 1014.5 |
| 20260503130659 | 48 | 348 | 7.0 | 16.0 | 0.00 | 0.00 | 0.00 | 53 | 1014.3 |